Time,TemperatureF,DewpointF,PressureIn,WindDirection,WindDirectionDegrees,WindSpeedMPH,WindSpeedGustMPH,Humidity,HourlyPrecipIn,Conditions,Clouds,dailyrainin,SoftwareType,DateUTC
2013-09-09 00:02:00,60.0,52.0,-100.00,SE,143,4.0,5.0,75,0.00,,,0.00,,2013-09-09 06:02:00,
2013-09-09 00:21:00,57.0,52.0,-100.00,NW,304,2.0,4.0,83,0.00,,,0.00,,2013-09-09 06:21:00,
2013-09-09 00:32:00,57.0,52.0,-100.00,NW,304,2.0,4.0,83,0.00,,,0.00,,2013-09-09 06:32:00,
2013-09-09 00:52:00,55.0,53.0,-100.00,WNW,302,2.0,3.0,91,0.00,,,0.00,,2013-09-09 06:52:00,
2013-09-09 01:01:00,55.0,53.0,-100.00,WNW,302,2.0,3.0,91,0.00,,,0.00,,2013-09-09 07:01:00,
2013-09-09 01:21:00,55.0,53.0,-100.00,WNW,301,1.0,1.0,91,0.00,,,0.00,,2013-09-09 07:21:00,
2013-09-09 01:32:00,55.0,53.0,-100.00,WNW,301,1.0,1.0,91,0.00,,,0.00,,2013-09-09 07:32:00,
2013-09-09 01:52:00,54.0,52.0,-100.00,SSE,161,1.0,2.0,93,0.00,,,0.00,,2013-09-09 07:52:00,
2013-09-09 02:02:00,54.0,52.0,-100.00,SSE,161,1.0,2.0,93,0.00,,,0.00,,2013-09-09 08:02:00,
2013-09-09 02:21:00,54.0,52.0,-100.00,ENE,61,1.0,2.0,94,0.00,,,0.00,,2013-09-09 08:21:00,
2013-09-09 02:32:00,54.0,52.0,-100.00,ENE,61,1.0,2.0,94,0.00,,,0.00,,2013-09-09 08:32:00,
2013-09-09 02:52:00,53.0,51.0,-100.00,NW,316,2.0,3.0,94,0.00,,,0.00,,2013-09-09 08:52:00,
2013-09-09 03:01:00,53.0,51.0,-100.00,NW,316,2.0,3.0,94,0.00,,,0.00,,2013-09-09 09:01:00,
2013-09-09 03:22:00,52.0,51.0,-100.00,NE,49,1.0,2.0,95,0.00,,,0.00,,2013-09-09 09:22:00,
2013-09-09 03:33:00,52.0,51.0,-100.00,NE,49,1.0,2.0,95,0.00,,,0.00,,2013-09-09 09:33:00,
2013-09-09 03:53:00,53.0,51.0,-100.00,NE,47,3.0,4.0,94,0.00,,,0.00,,2013-09-09 09:53:00,
2013-09-09 04:03:00,53.0,51.0,-100.00,NE,47,3.0,4.0,94,0.00,,,0.00,,2013-09-09 10:03:00,
2013-09-09 04:23:00,55.0,51.0,-100.00,North,353,5.0,6.0,84,0.00,,,0.00,,2013-09-09 10:23:00,
2013-09-09 04:32:00,55.0,51.0,-100.00,North,353,5.0,6.0,84,0.00,,,0.00,,2013-09-09 10:32:00,
2013-09-09 04:52:00,53.0,50.0,-100.00,West,268,2.0,3.0,89,0.00,,,0.00,,2013-09-09 10:52:00,
2013-09-09 05:02:00,53.0,50.0,-100.00,West,268,2.0,3.0,89,0.00,,,0.00,,2013-09-09 11:02:00,
2013-09-09 05:22:00,51.0,49.0,-100.00,NE,48,3.0,4.0,91,0.00,,,0.00,,2013-09-09 11:22:00,
2013-09-09 05:33:00,51.0,49.0,-100.00,NE,48,3.0,4.0,91,0.00,,,0.00,,2013-09-09 11:33:00,
2013-09-09 05:52:00,51.0,48.0,-100.00,South,188,4.0,5.0,92,0.00,,,0.00,,2013-09-09 11:52:00,
2013-09-09 06:01:00,51.0,48.0,-100.00,South,188,4.0,5.0,92,0.00,,,0.00,,2013-09-09 12:01:00,
2013-09-09 06:22:00,50.0,49.0,-100.00,SSE,147,2.0,2.0,95,0.00,,,0.00,,2013-09-09 12:22:00,
2013-09-09 06:32:00,50.0,49.0,-100.00,SSE,147,2.0,2.0,95,0.00,,,0.00,,2013-09-09 12:32:00,
2013-09-09 06:52:00,50.0,48.0,-100.00,South,189,1.0,2.0,94,0.00,,,0.00,,2013-09-09 12:52:00,
2013-09-09 07:01:00,50.0,48.0,-100.00,South,189,1.0,2.0,94,0.00,,,0.00,,2013-09-09 13:01:00,
2013-09-09 07:21:00,49.0,47.0,-100.00,NNE,23,0.0,2.0,92,0.00,,,0.00,,2013-09-09 13:21:00,
2013-09-09 07:32:00,49.0,47.0,-100.00,NNE,23,0.0,2.0,92,0.00,,,0.00,,2013-09-09 13:32:00,
2013-09-09 07:52:00,48.0,46.0,-100.00,SW,227,4.0,5.0,94,0.00,,,0.00,,2013-09-09 13:52:00,
2013-09-09 08:02:00,48.0,46.0,-100.00,SW,227,4.0,5.0,94,0.00,,,0.00,,2013-09-09 14:02:00,
2013-09-09 08:21:00,50.0,48.0,-100.00,SW,219,1.0,2.0,93,0.00,,,0.00,,2013-09-09 14:21:00,
2013-09-09 08:32:00,50.0,48.0,-100.00,SW,219,1.0,2.0,93,0.00,,,0.00,,2013-09-09 14:32:00,
2013-09-09 08:52:00,53.0,48.0,-100.00,East,85,2.0,3.0,86,0.00,,,0.00,,2013-09-09 14:52:00,
2013-09-09 09:02:00,53.0,48.0,-100.00,East,85,2.0,3.0,86,0.00,,,0.00,,2013-09-09 15:02:00,
2013-09-09 09:22:00,56.0,47.0,-100.00,NNW,343,2.0,5.0,72,0.00,,,0.00,,2013-09-09 15:22:00,
2013-09-09 09:34:00,56.0,47.0,-100.00,NNW,343,2.0,5.0,72,0.00,,,0.00,,2013-09-09 15:34:00,
2013-09-09 09:53:00,61.0,47.0,-100.00,North,349,8.0,10.0,61,0.00,,,0.00,,2013-09-09 15:53:00,
2013-09-09 10:03:00,61.0,47.0,-100.00,North,349,8.0,10.0,61,0.00,,,0.00,,2013-09-09 16:03:00,
2013-09-09 10:24:00,64.0,45.0,-100.00,North,1,11.0,14.0,50,0.00,,,0.00,,2013-09-09 16:24:00,
2013-09-09 10:34:00,64.0,45.0,-100.00,North,1,11.0,14.0,50,0.00,,,0.00,,2013-09-09 16:34:00,
2013-09-09 10:54:00,64.0,44.0,-100.00,NNE,18,10.0,14.0,48,0.00,,,0.00,,2013-09-09 16:54:00,
2013-09-09 11:03:00,64.0,44.0,-100.00,NNE,18,10.0,14.0,48,0.00,,,0.00,,2013-09-09 17:03:00,
2013-09-09 11:23:00,65.0,45.0,-100.00,North,3,12.0,15.0,49,0.00,,,0.00,,2013-09-09 17:23:00,
2013-09-09 11:34:00,65.0,45.0,-100.00,North,3,12.0,15.0,49,0.00,,,0.00,,2013-09-09 17:34:00,
2013-09-09 11:53:00,65.0,45.0,-100.00,NNE,16,11.0,13.0,47,0.00,,,0.00,,2013-09-09 17:53:00,
2013-09-09 12:02:00,65.0,45.0,-100.00,NNE,16,11.0,13.0,47,0.00,,,0.00,,2013-09-09 18:02:00,
2013-09-09 12:21:00,68.0,45.0,-100.00,NNW,347,9.0,11.0,43,0.00,,,0.00,,2013-09-09 18:21:00,
2013-09-09 12:42:00,68.0,46.0,-100.00,NNW,344,6.0,9.0,44,0.00,,,0.00,,2013-09-09 18:42:00,
2013-09-09 12:52:00,69.0,46.0,-100.00,North,349,3.0,7.0,44,0.00,,,0.00,,2013-09-09 18:52:00,
2013-09-09 13:01:00,69.0,46.0,-100.00,North,349,3.0,7.0,44,0.00,,,0.00,,2013-09-09 19:01:00,
2013-09-09 13:11:00,69.0,46.0,-100.00,North,349,3.0,7.0,44,0.00,,,0.00,,2013-09-09 19:11:00,
2013-09-09 13:43:00,71.0,45.0,-100.00,NNW,343,9.0,13.0,40,0.00,,,0.00,,2013-09-09 19:43:00,
2013-09-09 14:12:00,71.0,48.0,-100.00,NNE,20,6.0,8.0,43,0.00,,,0.00,,2013-09-09 20:12:00,
2013-09-09 14:42:00,72.0,47.0,-100.00,North,360,9.0,13.0,41,0.00,,,0.00,,2013-09-09 20:42:00,
2013-09-09 14:53:00,74.0,47.0,-100.00,North,354,10.0,14.0,38,0.00,,,0.00,,2013-09-09 20:53:00,
2013-09-09 15:02:00,74.0,47.0,-100.00,North,354,10.0,14.0,38,0.00,,,0.00,,2013-09-09 21:02:00,
2013-09-09 15:12:00,74.0,47.0,-100.00,North,354,10.0,14.0,38,0.00,,,0.00,,2013-09-09 21:12:00,
2013-09-09 15:44:00,74.0,47.0,-100.00,NNW,333,5.0,7.0,38,0.00,,,0.00,,2013-09-09 21:44:00,
2013-09-09 16:13:00,75.0,47.0,-100.00,NNW,344,8.0,10.0,38,0.00,,,0.00,,2013-09-09 22:13:00,
2013-09-09 16:43:00,75.0,46.0,-100.00,WNW,302,10.0,15.0,36,0.00,,,0.00,,2013-09-09 22:43:00,
2013-09-09 16:54:00,75.0,45.0,-100.00,NW,309,12.0,17.0,34,0.00,,,0.00,,2013-09-09 22:54:00,
2013-09-09 17:03:00,75.0,45.0,-100.00,NW,309,12.0,17.0,34,0.00,,,0.00,,2013-09-09 23:03:00,
2013-09-09 17:12:00,75.0,45.0,-100.00,NW,309,12.0,17.0,34,0.00,,,0.00,,2013-09-09 23:12:00,
2013-09-09 17:42:00,75.0,44.0,-100.00,NNW,333,13.0,19.0,33,0.00,,,0.00,,2013-09-09 23:42:00,
2013-09-09 18:12:00,74.0,43.0,-100.00,WNW,301,14.0,19.0,32,0.00,,,0.00,,2013-09-10 00:12:00,
2013-09-09 18:42:00,74.0,41.0,-100.00,NW,322,11.0,15.0,30,0.00,,,0.00,,2013-09-10 00:42:00,
2013-09-09 19:11:00,74.0,38.0,-100.00,NNW,332,16.0,19.0,28,0.00,,,0.00,,2013-09-10 01:11:00,
2013-09-09 19:42:00,72.0,40.0,-100.00,NNW,329,13.0,17.0,31,0.00,,,0.00,,2013-09-10 01:42:00,
2013-09-09 20:12:00,69.0,41.0,-100.00,NW,320,8.0,9.0,35,0.00,,,0.00,,2013-09-10 02:12:00,
2013-09-09 20:42:00,64.0,43.0,-100.00,NNE,17,4.0,6.0,46,0.00,,,0.00,,2013-09-10 02:42:00,
2013-09-09 20:52:00,64.0,43.0,-100.00,NNE,17,4.0,6.0,46,0.00,,,0.00,,2013-09-10 02:52:00,
2013-09-09 21:02:00,64.0,43.0,-100.00,NNE,17,4.0,6.0,46,0.00,,,0.00,,2013-09-10 03:02:00,
2013-09-09 21:22:00,63.0,43.0,-100.00,NNE,23,4.0,6.0,48,0.00,,,0.00,,2013-09-10 03:22:00,
2013-09-09 21:35:00,63.0,43.0,-100.00,NNE,23,4.0,6.0,48,0.00,,,0.00,,2013-09-10 03:35:00,
2013-09-09 21:54:00,64.0,42.0,-100.00,North,353,5.0,7.0,45,0.00,,,0.00,,2013-09-10 03:54:00,
2013-09-09 22:04:00,64.0,42.0,-100.00,North,353,5.0,7.0,45,0.00,,,0.00,,2013-09-10 04:04:00,
2013-09-09 22:24:00,62.0,42.0,-100.00,North,354,6.0,8.0,48,0.00,,,0.00,,2013-09-10 04:24:00,
2013-09-09 22:34:00,62.0,42.0,-100.00,North,354,6.0,8.0,48,0.00,,,0.00,,2013-09-10 04:34:00,
2013-09-09 22:53:00,62.0,42.0,-100.00,North,356,5.0,6.0,49,0.00,,,0.00,,2013-09-10 04:53:00,
2013-09-09 23:03:00,62.0,42.0,-100.00,North,356,5.0,6.0,49,0.00,,,0.00,,2013-09-10 05:03:00,
2013-09-09 23:23:00,57.0,45.0,-100.00,North,356,3.0,8.0,64,0.00,,,0.00,,2013-09-10 05:23:00,
2013-09-09 23:34:00,57.0,45.0,-100.00,North,356,3.0,8.0,64,0.00,,,0.00,,2013-09-10 05:34:00,
2013-09-09 23:53:00,56.0,44.0,-100.00,East,92,6.0,8.0,65,0.00,,,0.00,,2013-09-10 05:53:00,